Weather History for Hutchinson, KS

Change the Weather History Date:

Monday, September 10, 2012

  Actual Average Record
Temperature  
Mean Temperature 72 °F -  
Max Temperature 90 °F 83 °F 100 °F (2000)
Min Temperature 53 °F 57 °F 42 °F (2001)
Cooling Degree Days 6    
Growing Degree Days 22 (Base 50)    
Moisture  
Dew Point 47 °F    
Average Humidity 49    
Maximum Humidity 80    
Minimum Humidity 19    
Precipitation  
Precipitation 0.00 in - - ()
Sea Level Pressure  
Sea Level Pressure 30.03 in    
Wind  
Wind Speed 9 mph (SSE)    
Max Wind Speed 20 mph    
Max Gust Speed 26 mph    
Visibility 10 miles    
Events      
Averages and records for this station are not official NWS values.
T = Trace of Precipitation, MM = Missing Value Source: NWS Daily Summary

Daily Weather History Graph

Daily Weather History Graph

Search for Another Location

Airport:

Trip Planner

Search our weather history database for the weather conditions in past years. The results will help you decide how hot, cold, wet, or windy it might be!

Date:

Astronomy

Sep. 10, 2012 Rise Set
Actual Time 7:09 AM CDT 7:46 PM CDT
Civil Twilight 6:42 AM CDT 8:12 PM CDT
Nautical Twilight 6:11 AM CDT 8:44 PM CDT
Astronomical Twilight 5:39 AM CDT 9:16 PM CDT
Moon 1:35 AM CDT (9/10) 4:13 PM CDT (9/10)
Length of Visible Light 13h 30m
Length of Day
12h 37m
Waning Crescent, 30% of the Moon is Illuminated
Sep 10
Waning Crescent
Sep 15
New
Sep 22
First Quarter
Sep 29
Full
Oct 8
Last Quarter

Hourly Weather History & Observations

Time (CDT) Temp. Dew Point Humidity Pressure Visibility Wind Dir Wind Speed Gust Speed Precip Events Conditions
12:52 AM 59.0 °F 46.9 °F 64% 30.10 in 10.0 mi ESE 8.1 mph - N/A   Clear
1:52 AM 59.0 °F 48.0 °F 67% 30.09 in 10.0 mi ESE 6.9 mph - N/A   Clear
2:52 AM 57.0 °F 48.0 °F 72% 30.09 in 10.0 mi SE 5.8 mph - N/A   Clear
3:52 AM 55.0 °F 48.0 °F 77% 30.09 in 10.0 mi SE 3.5 mph - N/A   Clear
4:52 AM 53.1 °F 46.0 °F 77% 30.09 in 10.0 mi SE 4.6 mph - N/A   Clear
5:52 AM 54.0 °F 48.0 °F 80% 30.10 in 10.0 mi SE 4.6 mph - N/A   Clear
6:52 AM 53.1 °F 46.9 °F 80% 30.11 in 10.0 mi ESE 3.5 mph - N/A   Clear
7:52 AM 55.9 °F 50.0 °F 80% 30.12 in 10.0 mi SE 6.9 mph - N/A   Clear
8:52 AM 61.0 °F 51.1 °F 70% 30.12 in 10.0 mi SSE 8.1 mph - N/A   Clear
9:52 AM 68.0 °F 51.1 °F 55% 30.10 in 10.0 mi SSE 12.7 mph - N/A   Clear
10:52 AM 75.0 °F 50.0 °F 41% 30.10 in 10.0 mi South 13.8 mph - N/A   Clear
11:52 AM 79.0 °F 51.1 °F 38% 30.08 in 10.0 mi South 13.8 mph - N/A   Clear
12:52 PM 82.0 °F 50.0 °F 33% 30.05 in 10.0 mi South 13.8 mph - N/A   Clear
1:52 PM 86.0 °F 50.0 °F 29% 30.07 in 10.0 mi South 17.3 mph 21.9 mph N/A   Clear
2:52 PM 88.0 °F 46.9 °F 24% 29.98 in 10.0 mi South 13.8 mph 24.2 mph N/A   Clear
3:52 PM 89.1 °F 44.1 °F 21% 29.96 in 10.0 mi South 19.6 mph - N/A   Clear
4:52 PM 90.0 °F 43.0 °F 19% 29.94 in 10.0 mi South 17.3 mph 26.5 mph N/A   Clear
5:52 PM 89.1 °F 41.0 °F 19% 29.93 in 10.0 mi South 16.1 mph - N/A   Clear
6:52 PM 86.0 °F 41.0 °F 20% 29.92 in 10.0 mi SSE 11.5 mph - N/A   Clear
7:52 PM 75.9 °F 46.0 °F 35% 29.92 in 10.0 mi SSE 6.9 mph - N/A   Clear
8:52 PM 73.0 °F 45.0 °F 37% 29.93 in 10.0 mi SE 8.1 mph - N/A   Clear
9:52 PM 70.0 °F 45.0 °F 41% 29.94 in 10.0 mi SE 8.1 mph - N/A   Clear
10:52 PM 68.0 °F 45.0 °F 43% 29.95 in 10.0 mi SSE 6.9 mph - N/A   Clear
11:52 PM 66.0 °F 45.0 °F 47% 29.94 in 10.0 mi SSE 8.1 mph - N/A   Clear